Regional Weather Roundup
Issued by NWS

Home | Current Version | Previous Version | Graphics & Text | Print | Product List | Glossary On
Versions: 1 2 3 4 5 6 7 8 9 10 11 12 13 14 15 16 17 18 19 20 21 22 23 24 25 26 27 28 29 30 31 32 33 34 35 36 37 38 39 40 41 42 43 44 45 46 47 48 49 50
000
ASUS45 KBOU 050907
RWRCO

WEATHER ROUNDUP FOR COLORADO
NATIONAL WEATHER SERVICE DENVER/BOULDER CO
300 AM MDT TUE MAY 05 2015

NOTE: "FAIR" INDICATES FEW OR NO CLOUDS BELOW 12000 FEET WITH NO
SIGNIFICANT WEATHER AND/OR OBSTRUCTIONS TO VISIBILITY.

COZ001>005-013-030-031-051000-
...NORTHWEST COLORADO...

CITY           SKY/WX    TMP DP  RH WIND       PRES   REMARKS
CRAIG          PTCLDY    39  34  82 CALM      29.97F
HAYDEN         NOT AVBL
MEEKER         MOCLDY    42  37  82 CALM      29.96F
MOUNT WERNER   NOT AVBL
STEAMBOAT SPGS PTCLDY    38  34  87 CALM      29.99F
WALDEN         PTCLDY    34  32  93 E5        30.05S WCI  30
$$

COZ006>008-011-051000-
...WEST CENTRAL VALLEYS...

CITY           SKY/WX    TMP DP  RH WIND       PRES   REMARKS
GRAND JUNCTION CLOUDY    56  44  64 E12       29.89F
MONTROSE       CLOUDY    52  46  80 S7        29.96F
EAGLE          CLOUDY    39  37  93 E5        30.03S
RIFLE          MOCLDY    45  40  82 E5        29.94S
DELTA          CLOUDY    52  44  75 CALM      29.93F
NUCLA          CLOUDY    50  43  76 E5        29.99F
$$

COZ017>023-064>068-051000-
...SOUTHWEST COLORADO...

CITY           SKY/WX    TMP DP  RH WIND       PRES   REMARKS
DURANGO        LGT RAIN  46  44  93 CALM      29.99F
CORTEZ         LGT RAIN  49  46  90 CALM      29.96F FOG
PAGOSA SPRINGS DRIZZLE   43  42  97 CALM      30.04F
TELLURIDE      DRIZZLE   39  38  97 E5        30.08F
WOLF CREEK PAS NOT AVBL
$$

COZ009-010-012-014-032>034-037-058>063-051000-
...CENTRAL COLORADO...

CITY           SKY/WX    TMP DP  RH WIND       PRES   REMARKS
ASPEN          PTCLDY    36  34  92 CALM      30.01F
BUENA VISTA    NOT AVBL
COPPER MTN     MOCLDY    36  30  80 SE10      30.20F
BERTHOUD PASS  HAZE      27  19  74 E24       30.22F VSB<1/4 WCI  12
COTTONWOOD PAS SNOW      36  34  93 SE8       30.14S VSB 1/2
GUNNISON       CLOUDY    45  37  76 N6        30.06F
KREMMLING      PTCLDY    34  32  93 CALM      30.06S
LEADVILLE      CLOUDY    36  36 100 NW3       30.11F
MONARCH PASS   FOG       30  28  93 MISG      30.29S VSB<1/4
SALIDA         CLOUDY    44  42  91 W6        30.15S
SUNLIGHT       MOCLDY    36  34  93 E3        30.16S
WILKERSON PASS LGT SNOW  32  32 100 S8        30.21F WCI  25
$$

COZ069>075-051000-
...SAN LUIS VALLEY/SANGRE DE CRISTO MOUNTAINS...

CITY           SKY/WX    TMP DP  RH WIND       PRES   REMARKS
ALAMOSA        CLOUDY    47  42  83 SW8       30.03S
LA VETA PASS   DRZL/FOG  36  34  93 MISG      30.13F VSB 1/2
SAGUACHE       CLOUDY    43  41  93 NW7       30.05F
$$

COZ035-036-038>040-051000-
...NORTHERN COLORADO FRONT RANGE...

CITY           SKY/WX    TMP DP  RH WIND       PRES   REMARKS
DENVER INTL AP FOG       47  46  97 E9        30.01F VSB 1/2
DMNS CITY PARK   N/A     49  48  97 E6        30.01S
AURORA         CLOUDY    47  47 100 E5        30.03F
FRONT RANGE AP NOT AVBL
ERIE MUNI ARPT CLOUDY    50  49  97 CALM      30.01F FOG
BOULDER MUN AP CLOUDY    50  50 100 CALM      30.01F FOG
CENTENNIAL     MOCLDY    48  46  93 NE5       30.03F
BROOMFIELD     FOG       48  48 100 NE3       30.03F VSB 1/2
FORT COLLINS   MOCLDY    48  46  93 SE7       30.04F
LONGMONT       CLOUDY    52  50  92 CALM      30.04F FOG
$$

COZ041-046-047-076>085-087-088-051000-
...PIKES PEAK/PALMER DIVIDE AND SOUTHERN FOOTHILLS...

CITY           SKY/WX    TMP DP  RH WIND       PRES   REMARKS
COLO. SPRINGS  LGT RAIN  48  47  96 SE9       30.06F FOG
A. F. ACADEMY  CLOUDY    45  45  99 CALM      30.05F
ELLICOTT       LGT RAIN N/A N/A N/A SE13      30.04F
FALCON         FOG       46  46 100 SE10      30.07F VSB 1/4
FORT CARSON    LGT RAIN  48  48  99 VRB1      30.03F
LIMON          FOG       47  47 100 E13       30.04F VSB 1/4
MONUMENT HILL  CLOUDY    43  43 100 S7        30.05S
TRINIDAD       LGT RAIN  50  49  96 NE7       30.00F
$$

COZ042>045-048>051-090-091-051000-
...NORTHEAST COLORADO...

CITY           SKY/WX    TMP DP  RH WIND       PRES   REMARKS
GREELEY ARPT   CLOUDY    46  43  87 E10       30.05S
AKRON          FOG       45  45 100 SE12      30.05F VSB 1/4
BURLINGTON     FOG       49  47  93 E8        30.05S VSB 3/4
WRAY           CLOUDY   N/A N/A N/A SE5       30.06F HAZE
STERLING       CLOUDY    46  45  93 E5        30.04F FOG
HOLYOKE        NOT AVBL
FORT MORGAN    CLOUDY    46  44  94 E6        30.05S FOG
$$

COZ086-089-092>099-051000-
...SOUTHEAST COLORADO...

CITY           SKY/WX    TMP DP  RH WIND       PRES   REMARKS
PUEBLO         CLOUDY    53  51  93 E12       30.00F
LA JUNTA       CLOUDY    55  53  93 E13       29.99F
LAMAR          CLOUDY    56  54  93 E7        29.98F
SPRINGFIELD      N/A     53  53 100 E12       29.99F
$$



USA.gov is the U.S. government's official web portal to all federal, state and local government web resources and services.